• In Hungary
  • List of Countries
  • For 7 days
  • Water Temperature
  • Satellite Maps
  • Weather Map
  • News
  • Weather Widgets
  • user-avatar
    Login

    Hourly Weather Warblewko

    Today, 21 November, Tuesday

    Time Temperature Precipitation Wind Pressure Humidity
    00:00 +1°C° 0 mm 1 mps 752 mmHg 82%
    01:00 -1°C° 0 mm 2 mps 751 mmHg 82%
    02:00 -1°C° 0 mm 2 mps 752 mmHg 82%
    03:00 -1°C° 0 mm 2 mps 752 mmHg 83%
    04:00 -1°C° 0 mm 2 mps 752 mmHg 83%
    05:00 -1°C° 0 mm 2 mps 752 mmHg 84%
    06:00 -1°C° 0 mm 2 mps 752 mmHg 86%
    07:00 -1°C° 0 mm 2 mps 752 mmHg 87%
    08:00 +1°C° 0 mm 2 mps 752 mmHg 86%
    09:00 0°C° 0 mm 3 mps 752 mmHg 85%
    10:00 +1°C° 0 mm 3 mps 752 mmHg 83%
    11:00 +1°C° 0 mm 3 mps 752 mmHg 83%
    12:00 +3°C° 0 mm 2 mps 752 mmHg 82%
    13:00 +3°C° 0 mm 2 mps 752 mmHg 82%
    14:00 +2°C° 0 mm 2 mps 752 mmHg 85%
    15:00 +2°C° 0 mm 2 mps 752 mmHg 88%
    16:00 +2°C° 0 mm 1 mps 752 mmHg 91%
    17:00 +2°C° 0 mm 1 mps 752 mmHg 92%
    18:00 +2°C° 0 mm 1 mps 752 mmHg 93%
    19:00 -1°C° 0 mm 2 mps 752 mmHg 94%
    20:00 -1°C° 0 mm 2 mps 752 mmHg 94%
    21:00 -1°C° 0 mm 2 mps 752 mmHg 94%
    22:00 -1°C° 0 mm 2 mps 752 mmHg 94%
    23:00 -1°C° 0 mm 2 mps 752 mmHg 93%

    Tomorrow, 22 November, Wednesday

    Time Temperature Precipitation Wind Pressure Humidity
    00:00 -1°C° 0 mm 3 mps 752 mmHg 93%
    01:00 -1°C° 0 mm 3 mps 752 mmHg 93%
    02:00 -1°C° 0 mm 3 mps 752 mmHg 93%
    03:00 -1°C° 0 mm 4 mps 751 mmHg 92%
    04:00 -1°C° 0 mm 4 mps 751 mmHg 92%
    05:00 -1°C° 0.3 mm 5 mps 750 mmHg 89%
    06:00 -1°C° 0.3 mm 6 mps 750 mmHg 87%
    07:00 -1°C° 0.3 mm 7 mps 749 mmHg 85%
    08:00 -1°C° 1.4 mm 7 mps 749 mmHg 86%
    09:00 -1°C° 1.4 mm 7 mps 749 mmHg 88%
    10:00 -1°C° 1.4 mm 7 mps 749 mmHg 89%
    11:00 0°C° 0.4 mm 7 mps 749 mmHg 90%
    12:00 +1°C° 0.4 mm 6 mps 748 mmHg 91%
    13:00 +1°C° 0.4 mm 6 mps 748 mmHg 92%
    14:00 +1°C° 0.3 mm 6 mps 748 mmHg 93%
    15:00 +2°C° 0.3 mm 5 mps 748 mmHg 95%
    16:00 +2°C° 0.3 mm 5 mps 748 mmHg 96%
    17:00 +2°C° 0.4 mm 5 mps 748 mmHg 96%
    18:00 +3°C° 0.4 mm 5 mps 748 mmHg 96%
    19:00 +3°C° 0.4 mm 5 mps 749 mmHg 96%
    20:00 +3°C° 0.1 mm 5 mps 749 mmHg 97%
    21:00 +5°C° 0.1 mm 5 mps 749 mmHg 97%
    22:00 +5°C° 0.1 mm 5 mps 749 mmHg 97%
    23:00 +5°C° 0 mm 5 mps 749 mmHg 96%

    Day after tomorrow, 23 November, Thursday

    Time Temperature Precipitation Wind Pressure Humidity
    00:00 +5°C° 0 mm 5 mps 749 mmHg 96%
    01:00 +5°C° 0 mm 5 mps 749 mmHg 96%
    02:00 +5°C° 0 mm 5 mps 749 mmHg 95%
    03:00 +5°C° 0 mm 5 mps 749 mmHg 94%
    04:00 +4°C° 0 mm 6 mps 749 mmHg 93%
    05:00 +3°C° 0 mm 6 mps 749 mmHg 91%
    06:00 +3°C° 0 mm 6 mps 749 mmHg 88%
    07:00 +3°C° 0 mm 6 mps 749 mmHg 86%
    08:00 +4°C° 0 mm 7 mps 749 mmHg 82%
    09:00 +4°C° 0 mm 7 mps 749 mmHg 77%
    10:00 +5°C° 0 mm 7 mps 749 mmHg 72%
    11:00 +5°C° 0 mm 7 mps 749 mmHg 70%
    12:00 +6°C° 0 mm 7 mps 749 mmHg 67%
    13:00 +8°C° 0 mm 7 mps 749 mmHg 64%
    14:00 +6°C° 0 mm 7 mps 749 mmHg 67%
    15:00 +6°C° 0 mm 7 mps 749 mmHg 69%
    16:00 +5°C° 0 mm 6 mps 749 mmHg 72%
    17:00 +5°C° 0 mm 6 mps 750 mmHg 74%
    18:00 +7°C° 0 mm 6 mps 750 mmHg 76%
    19:00 +7°C° 0 mm 6 mps 750 mmHg 78%
    20:00 +7°C° 0 mm 6 mps 750 mmHg 79%
    21:00 +7°C° 0 mm 6 mps 751 mmHg 81%
    22:00 +7°C° 0 mm 6 mps 751 mmHg 83%
    23:00 +7°C° 0 mm 6 mps 751 mmHg 84%

    24 November, Friday

    Time Temperature Precipitation Wind Pressure Humidity
    00:00 +7°C° 0 mm 6 mps 752 mmHg 86%
    01:00 +7°C° 0 mm 6 mps 752 mmHg 87%
    02:00 +7°C° 0 mm 6 mps 752 mmHg 89%
    03:00 +7°C° 0 mm 5 mps 753 mmHg 91%
    04:00 +7°C° 0 mm 5 mps 753 mmHg 92%
    05:00 +6°C° 0 mm 5 mps 753 mmHg 93%
    06:00 +6°C° 0 mm 5 mps 754 mmHg 93%
    07:00 +6°C° 0 mm 5 mps 754 mmHg 94%
    08:00 +6°C° 0 mm 5 mps 754 mmHg 92%
    09:00 +7°C° 0 mm 6 mps 754 mmHg 89%
    10:00 +8°C° 0 mm 6 mps 754 mmHg 87%
    11:00 +9°C° 0 mm 6 mps 753 mmHg 84%
    12:00 +9°C° 0 mm 6 mps 753 mmHg 81%
    13:00 +10°C° 0 mm 6 mps 753 mmHg 78%
    14:00 +9°C° 0 mm 6 mps 753 mmHg 80%
    15:00 +9°C° 0 mm 6 mps 753 mmHg 82%
    16:00 +8°C° 0 mm 6 mps 753 mmHg 84%
    17:00 +8°C° 0 mm 6 mps 752 mmHg 84%
    18:00 +8°C° 0 mm 6 mps 752 mmHg 84%
    19:00 +8°C° 0 mm 6 mps 752 mmHg 84%
    20:00 +8°C° 0 mm 6 mps 752 mmHg 82%
    21:00 +8°C° 0 mm 6 mps 752 mmHg 80%
    22:00 +8°C° 0 mm 6 mps 752 mmHg 78%
    23:00 +8°C° 0.1 mm 6 mps 752 mmHg 79%

    25 November, Saturday

    Time Temperature Precipitation Wind Pressure Humidity
    00:00 +8°C° 0.1 mm 6 mps 752 mmHg 79%
    01:00 +8°C° 0.1 mm 6 mps 752 mmHg 80%
    02:00 +8°C° 0 mm 6 mps 751 mmHg 80%
    03:00 +8°C° 0 mm 6 mps 751 mmHg 80%
    04:00 +7°C° 0 mm 6 mps 751 mmHg 80%
    05:00 +6°C° 0 mm 7 mps 750 mmHg 79%
    06:00 +8°C° 0 mm 7 mps 750 mmHg 78%
    07:00 +8°C° 0 mm 7 mps 750 mmHg 77%
    08:00 +8°C° 0 mm 7 mps 749 mmHg 75%
    09:00 +8°C° 0 mm 7 mps 749 mmHg 73%
    10:00 +8°C° 0 mm 7 mps 749 mmHg 72%
    11:00 +9°C° 0 mm 7 mps 748 mmHg 70%
    12:00 +9°C° 0 mm 7 mps 748 mmHg 69%
    13:00 +10°C° 0 mm 7 mps 748 mmHg 68%
    14:00 +9°C° 0.2 mm 7 mps 748 mmHg 70%
    15:00 +9°C° 0.2 mm 7 mps 748 mmHg 73%
    16:00 +8°C° 0.2 mm 7 mps 748 mmHg 76%
    17:00 +8°C° 0.5 mm 6 mps 749 mmHg 77%
    18:00 +7°C° 0.5 mm 6 mps 749 mmHg 78%
    19:00 +7°C° 0.5 mm 6 mps 749 mmHg 80%
    20:00 +5°C° 0.5 mm 6 mps 750 mmHg 79%
    21:00 +5°C° 0.5 mm 6 mps 750 mmHg 78%
    22:00 +6°C° 0.5 mm 5 mps 751 mmHg 77%
    23:00 +6°C° 0.1 mm 5 mps 751 mmHg 77%

    26 November, Sunday

    Time Temperature Precipitation Wind Pressure Humidity
    00:00 +5°C° 0.1 mm 5 mps 752 mmHg 77%
    01:00 +5°C° 0.1 mm 5 mps 752 mmHg 77%
    02:00 +5°C° 0 mm 5 mps 752 mmHg 78%
    03:00 +3°C° 0 mm 5 mps 752 mmHg 78%
    04:00 +3°C° 0 mm 6 mps 753 mmHg 79%
    05:00 +2°C° 0 mm 6 mps 753 mmHg 79%
    06:00 +1°C° 0 mm 6 mps 753 mmHg 79%
    07:00 +1°C° 0 mm 6 mps 753 mmHg 80%
    08:00 +1°C° 0 mm 6 mps 753 mmHg 77%
    09:00 +2°C° 0 mm 7 mps 753 mmHg 73%
    10:00 +2°C° 0 mm 7 mps 753 mmHg 70%
    11:00 +2°C° 0 mm 7 mps 753 mmHg 68%
    12:00 +3°C° 0 mm 7 mps 753 mmHg 66%
    13:00 +3°C° 0 mm 7 mps 753 mmHg 64%
    14:00 +2°C° 0 mm 7 mps 753 mmHg 67%
    15:00 +2°C° 0 mm 6 mps 753 mmHg 71%
    16:00 +1°C° 0 mm 6 mps 753 mmHg 75%
    17:00 0°C° 0 mm 7 mps 753 mmHg 76%
    18:00 0°C° 0 mm 7 mps 752 mmHg 77%
    19:00 0°C° 0 mm 8 mps 752 mmHg 78%
    20:00 0°C° 0 mm 8 mps 752 mmHg 78%
    21:00 0°C° 0 mm 8 mps 752 mmHg 78%
    22:00 0°C° 0 mm 8 mps 752 mmHg 78%
    23:00 0°C° 0 mm 8 mps 751 mmHg 79%
    Show more